FW9209 Weather Reports


time (UTC)temp
C
wind
direction
speed
KPH
gust
KPH
rain 1hr
cm
rain 24hr
cm
rain mn
cm
humidity
%
barometer
mb
20260503173059 17 238 4.8 24.1 0.00 0.00 0.00 48 1003.9
20260503171553 17 270 4.8 19.3 0.00 0.00 0.00 47 1003.9
20260503130103 10 0 1.6 6.4 0.00 0.00 0.00 65 1005.8
20260503081554 9 212 1.6 4.8 0.00 0.00 0.00 71 1007.8
20260503071604 8 214 4.8 9.7 0.00 0.00 0.00 62 1008.1
20260503060108 9 0 0.0 4.8 0.00 0.00 0.00 62 1008.7
20260503054556 8 0 0.0 6.4 0.00 0.00 0.00 61 1008.8
20260503053053 8 228 0.0 6.4 0.00 0.00 0.00 63 1008.9
20260503051552 8 0 0.0 3.2 0.00 0.00 0.00 65 1009.0
20260503050055 8 235 0.0 0.0 0.00 0.00 0.00 68 1009.2
20260503044605 8 0 0.0 0.0 0.00 0.00 0.00 69 1009.2
20260503043057 8 0 0.0 0.0 0.00 0.00 0.00 65 1009.4
20260503041553 8 0 0.0 0.0 0.00 0.00 0.00 64 1009.6
20260503040100 9 0 0.0 0.0 0.00 0.00 0.00 60 1009.8
20260503034556 9 0 0.0 1.6 0.00 0.00 0.00 61 1009.9
20260503033107 10 0 0.0 1.6 0.00 0.00 0.00 60 1010.2
20260503031604 10 0 0.0 1.6 0.00 0.00 0.00 58 1010.4
20260503030056 10 0 0.0 1.6 0.00 0.00 0.00 57 1010.7
20260503024604 10 0 0.0 1.6 0.00 0.00 0.00 55 1010.8
20260503023102 10 0 0.0 1.6 0.00 0.00 0.00 55 1010.9
20260503021607 10 266 0.0 3.2 0.00 0.00 0.00 54 1010.9
20260503020109 10 262 0.0 4.8 0.00 0.00 0.00 53 1011.0
20260503014602 11 0 0.0 4.8 0.00 0.00 0.00 52 1011.2
20260503013106 11 0 0.0 3.2 0.00 0.00 0.00 50 1011.1
20260503011604 11 259 1.6 6.4 0.00 0.00 0.00 48 1011.1
20260503010058 11 0 0.0 3.2 0.00 0.00 0.00 47 1011.1
20260503004552 12 0 1.6 6.4 0.00 0.00 0.00 45 1011.0
20260503003105 12 233 1.6 9.7 0.00 0.00 0.00 41 1011.1
20260503001619 13 273 1.6 9.7 0.00 0.00 0.00 40 1011.2
20260503000121 13 255 1.6 11.3 0.00 0.00 0.00 39 1011.3
20260502234605 13 250 4.8 14.5 0.00 0.00 0.00 37 1011.3
20260502233100 14 255 3.2 11.3 0.00 0.00 0.00 38 1011.4
20260502231559 14 219 9.7 19.3 0.00 0.00 0.00 33 1011.4
20260502230055 15 290 3.2 16.1 0.00 0.00 0.00 34 1011.4
20260502224555 15 306 3.2 16.1 0.00 0.00 0.00 35 1011.5
20260502223055 15 298 3.2 16.1 0.00 0.00 0.00 35 1011.7
20260502221553 14 217 6.4 20.9 0.00 0.00 0.00 34 1011.8
20260502220056 15 204 6.4 19.3 0.00 0.00 0.00 32 1011.8
20260502214555 15 246 3.2 14.5 0.00 0.00 0.00 34 1011.9
20260502213059 15 260 8.0 17.7 0.00 0.00 0.00 31 1011.9
20260502211558 15 313 6.4 16.1 0.00 0.00 0.00 35 1012.1
20260502210057 15 298 8.0 19.3 0.00 0.00 0.00 35 1012.3
20260502204612 15 240 4.8 19.3 0.00 0.00 0.00 37 1012.4
20260502203059 14 245 8.0 24.1 0.00 0.00 0.00 33 1012.7
20260502201559 15 283 6.4 20.9 0.00 0.00 0.00 32 1012.8
20260502200057 14 238 8.0 16.1 0.00 0.00 0.00 32 1013.1
20260502194556 13 234 4.8 11.3 0.00 0.00 0.00 35 1013.4
20260502193057 14 290 6.4 24.1 0.00 0.00 0.00 33 1013.6
20260502191602 13 198 8.0 19.3 0.00 0.00 0.00 33 1013.8
20260502190056 13 243 8.0 17.7 0.00 0.00 0.00 31 1014.0
20260502184553 13 298 8.0 17.7 0.00 0.00 0.00 34 1014.2
20260502183052 13 252 11.3 37.0 0.00 0.00 0.00 36 1014.4
20260502181554 13 221 8.0 22.5 0.00 0.00 0.00 36 1014.6